| time (UTC) | temp F | wind direction | speed MPH | gust MPH | rain 1hr in | rain 24hr in | rain mn in | humidity % | barometer mb |
| 20260903182329 | 93 | 165 | 2.0 | 7.0 | 0.00 | 0.00 | 0.00 | 57 | 1009.8 |
| 20260903181333 | 93 | 161 | 2.0 | 6.0 | 0.00 | 0.00 | 0.00 | 57 | 1009.9 |
| 20260903180340 | 92 | 155 | 2.0 | 6.0 | 0.00 | 0.00 | 0.00 | 57 | 1010.0 |
| 20260903175342 | 91 | 96 | 1.0 | 4.0 | 0.00 | 0.00 | 0.00 | 59 | 1010.1 |
| 20260903174352 | 90 | 158 | 2.0 | 4.0 | 0.00 | 0.00 | 0.00 | 57 | 1010.2 |
| 20260903173329 | 90 | 274 | 2.0 | 6.0 | 0.00 | 0.00 | 0.00 | 60 | 1010.3 |
| 20260903172337 | 90 | 157 | 2.0 | 7.0 | 0.00 | 0.00 | 0.00 | 60 | 1010.2 |
| 20260903171405 | 89 | 157 | 2.0 | 4.0 | 0.00 | 0.00 | 0.00 | 59 | 1010.4 |
| 20260903170330 | 88 | 214 | 1.0 | 4.0 | 0.00 | 0.00 | 0.00 | 60 | 1010.5 |
| 20260903165333 | 86 | 175 | 1.0 | 4.0 | 0.00 | 0.00 | 0.00 | 64 | 1010.8 |
| 20260903164335 | 86 | 189 | 1.0 | 4.0 | 0.00 | 0.00 | 0.00 | 65 | 1010.7 |
| 20260903163324 | 86 | 127 | 2.0 | 4.0 | 0.00 | 0.00 | 0.00 | 65 | 1010.3 |
| 20260903162351 | 85 | 248 | 0.0 | 3.0 | 0.00 | 0.00 | 0.00 | 66 | 1010.5 |
| 20260903161336 | 85 | 216 | 1.0 | 3.0 | 0.00 | 0.00 | 0.00 | 66 | 1010.6 |
| 20260903160347 | 85 | 266 | 1.0 | 3.0 | 0.00 | 0.00 | 0.00 | 66 | 1010.5 |
| 20260903155330 | 84 | 223 | 0.0 | 0.0 | 0.00 | 0.00 | 0.00 | 70 | 1010.7 |
| 20260903154326 | 83 | 233 | 0.0 | 2.0 | 0.00 | 0.00 | 0.00 | 71 | 1010.5 |
| 20260903153332 | 83 | 239 | 0.0 | 0.0 | 0.00 | 0.00 | 0.00 | 70 | 1010.8 |
| 20260903152344 | 82 | 244 | 0.0 | 0.0 | 0.00 | 0.00 | 0.00 | 68 | 1010.9 |
| 20260903151400 | 82 | 249 | 0.0 | 0.0 | 0.00 | 0.00 | 0.00 | 70 | 1010.8 |
| 20260903150347 | 82 | 249 | 0.0 | 1.0 | 0.00 | 0.00 | 0.00 | 69 | 1010.7 |
| 20260903145334 | 81 | 248 | 0.0 | 0.0 | 0.00 | 0.06 | 0.00 | 69 | 1010.3 |
| 20260903144340 | 81 | 187 | 0.0 | 0.0 | 0.00 | 0.06 | 0.00 | 69 | 1010.4 |
| 20260903143323 | 81 | 228 | 0.0 | 1.0 | 0.00 | 0.06 | 0.00 | 69 | 1010.5 |
| 20260903142333 | 81 | 270 | 0.0 | 1.0 | 0.00 | 0.06 | 0.00 | 69 | 1010.4 |
| 20260903141338 | 80 | 244 | 0.0 | 1.0 | 0.00 | 0.06 | 0.00 | 69 | 1010.4 |
| 20260903140404 | 81 | 292 | 0.0 | 1.0 | 0.00 | 0.06 | 0.00 | 68 | 1010.4 |
| 20260903135329 | 81 | 221 | 0.0 | 1.0 | 0.00 | 0.06 | 0.00 | 69 | 1010.4 |
| 20260903134352 | 80 | 171 | 0.0 | 0.0 | 0.00 | 0.06 | 0.00 | 69 | 1010.4 |
| 20260903133333 | 79 | 132 | 0.0 | 0.0 | 0.00 | 0.06 | 0.00 | 70 | 1010.5 |
| 20260903132325 | 80 | 132 | 0.0 | 0.0 | 0.00 | 0.06 | 0.00 | 70 | 1010.6 |
| 20260903131350 | 80 | 132 | 0.0 | 0.0 | 0.00 | 0.06 | 0.00 | 69 | 1010.4 |
| 20260903130336 | 79 | 132 | 0.0 | 0.0 | 0.00 | 0.06 | 0.00 | 68 | 1010.6 |
| 20260903125346 | 80 | 132 | 0.0 | 0.0 | 0.00 | 0.06 | 0.00 | 69 | 1010.7 |
| 20260903124326 | 80 | 132 | 0.0 | 0.0 | 0.00 | 0.06 | 0.00 | 67 | 1010.7 |
| 20260903123328 | 81 | 132 | 0.0 | 0.0 | 0.00 | 0.06 | 0.00 | 65 | 1010.7 |
| 20260903122358 | 81 | 132 | 0.0 | 2.0 | 0.00 | 0.06 | 0.00 | 64 | 1010.6 |
| 20260903121400 | 81 | 116 | 0.0 | 2.0 | 0.00 | 0.06 | 0.00 | 63 | 1010.3 |
| 20260903120349 | 81 | 159 | 0.0 | 2.0 | 0.00 | 0.06 | 0.00 | 64 | 1010.2 |
| 20260903115334 | 81 | 145 | 0.0 | 2.0 | 0.00 | 0.06 | 0.00 | 65 | 1010.2 |
| 20260903114342 | 81 | 145 | 1.0 | 2.0 | 0.00 | 0.06 | 0.00 | 65 | 1010.1 |
| 20260903113356 | 80 | 155 | 0.0 | 2.0 | 0.00 | 0.06 | 0.00 | 66 | 1010.1 |
| 20260903112330 | 80 | 223 | 0.0 | 3.0 | 0.00 | 0.06 | 0.00 | 66 | 1010.0 |
| 20260903111330 | 79 | 227 | 1.0 | 4.0 | 0.00 | 0.06 | 0.00 | 69 | 1009.9 |
| 20260903110341 | 78 | 149 | 0.0 | 2.0 | 0.00 | 0.06 | 0.00 | 71 | 1009.8 |
| 20260903105359 | 79 | 247 | 0.0 | 0.0 | 0.00 | 0.06 | 0.00 | 70 | 1009.9 |
| 20260903104339 | 79 | 247 | 0.0 | 0.0 | 0.00 | 0.06 | 0.00 | 68 | 1010.0 |
| 20260903103347 | 79 | 237 | 0.0 | 0.0 | 0.00 | 0.06 | 0.00 | 67 | 1010.2 |
| 20260903102333 | 80 | 237 | 0.0 | 0.0 | 0.00 | 0.06 | 0.00 | 67 | 1010.1 |
| 20260903101340 | 80 | 153 | 0.0 | 2.0 | 0.00 | 0.06 | 0.00 | 66 | 1010.1 |
| 20260903100348 | 80 | 131 | 0.0 | 1.0 | 0.00 | 0.06 | 0.00 | 66 | 1010.1 |
| 20260903095331 | 80 | 330 | 1.0 | 2.0 | 0.00 | 0.06 | 0.00 | 66 | 1009.8 |
| 20260903094338 | 80 | 124 | 0.0 | 2.0 | 0.00 | 0.06 | 0.00 | 66 | 1009.8 |
| 20260903093347 | 80 | 244 | 0.0 | 1.0 | 0.00 | 0.06 | 0.00 | 66 | 1009.8 |
| 20260903092351 | 81 | 331 | 0.0 | 4.0 | 0.00 | 0.06 | 0.00 | 65 | 1009.8 |
| 20260903091335 | 81 | 162 | 0.0 | 3.0 | 0.00 | 0.06 | 0.00 | 64 | 1009.9 |
| 20260903090344 | 81 | 151 | 2.0 | 4.0 | 0.00 | 0.06 | 0.00 | 64 | 1009.9 |
| 20260903085336 | 81 | 164 | 0.0 | 3.0 | 0.00 | 0.06 | 0.00 | 64 | 1009.9 |
| 20260903084342 | 81 | 182 | 0.0 | 3.0 | 0.00 | 0.06 | 0.00 | 64 | 1009.9 |
| 20260903083324 | 81 | 187 | 1.0 | 4.0 | 0.00 | 0.06 | 0.00 | 63 | 1009.9 |
| 20260903082333 | 82 | 178 | 1.0 | 4.0 | 0.00 | 0.06 | 0.00 | 63 | 1009.9 |
| 20260903081339 | 82 | 206 | 1.0 | 6.0 | 0.00 | 0.06 | 0.00 | 63 | 1009.9 |
| 20260903080349 | 82 | 272 | 0.0 | 3.0 | 0.00 | 0.06 | 0.00 | 63 | 1009.9 |
| 20260903075353 | 82 | 174 | 1.0 | 4.0 | 0.00 | 0.06 | 0.00 | 63 | 1009.9 |
| 20260903074339 | 82 | 159 | 0.0 | 3.0 | 0.00 | 0.06 | 0.00 | 62 | 1009.9 |
| 20260903073323 | 82 | 149 | 1.0 | 5.0 | 0.00 | 0.06 | 0.00 | 63 | 1010.0 |
| 20260903072334 | 82 | 159 | 0.0 | 3.0 | 0.00 | 0.06 | 0.00 | 63 | 1009.9 |
| 20260903071356 | 82 | 156 | 1.0 | 2.0 | 0.00 | 0.06 | 0.00 | 63 | 1010.0 |
| 20260903070325 | 82 | 74 | 0.0 | 1.0 | 0.00 | 0.06 | 0.00 | 63 | 1010.0 |
| 20260903065356 | 82 | 160 | 0.0 | 4.0 | 0.00 | 0.06 | 0.00 | 63 | 1010.0 |
| 20260903064338 | 82 | 167 | 0.0 | 1.0 | 0.00 | 0.06 | 0.00 | 63 | 1010.0 |
| 20260903063347 | 82 | 288 | 0.0 | 2.0 | 0.00 | 0.06 | 0.00 | 63 | 1010.1 |
| 20260903062334 | 82 | 131 | 0.0 | 2.0 | 0.00 | 0.06 | 0.00 | 63 | 1010.1 |
| 20260903061343 | 82 | 167 | 0.0 | 1.0 | 0.00 | 0.06 | 0.00 | 63 | 1010.1 |
| 20260903060350 | 83 | 176 | 0.0 | 2.0 | 0.00 | 0.06 | 0.00 | 63 | 1010.1 |
| 20260903055333 | 83 | 181 | 1.0 | 4.0 | 0.00 | 0.06 | 0.00 | 62 | 1010.1 |
| 20260903054333 | 83 | 235 | 0.0 | 4.0 | 0.00 | 0.06 | 0.00 | 62 | 1010.1 |
| 20260903053323 | 83 | 206 | 1.0 | 3.0 | 0.00 | 0.06 | 0.00 | 62 | 1010.0 |
| 20260903052335 | 83 | 170 | 0.0 | 2.0 | 0.00 | 0.06 | 0.00 | 61 | 1010.1 |
| 20260903051339 | 84 | 280 | 0.0 | 4.0 | 0.00 | 0.06 | 0.00 | 61 | 1010.0 |
| 20260903050333 | 84 | 223 | 1.0 | 3.0 | 0.00 | 0.06 | 0.00 | 60 | 1010.1 |
| 20260903045328 | 84 | 172 | 0.0 | 5.0 | 0.00 | 0.06 | 0.06 | 60 | 1010.0 |
| 20260903044335 | 84 | 151 | 0.0 | 5.0 | 0.00 | 0.06 | 0.06 | 60 | 1010.1 |
| 20260903043348 | 84 | 172 | 1.0 | 3.0 | 0.00 | 0.06 | 0.06 | 59 | 1010.1 |
| 20260903042337 | 85 | 145 | 1.0 | 4.0 | 0.00 | 0.06 | 0.06 | 59 | 1010.0 |
| 20260903041354 | 85 | 193 | 1.0 | 3.0 | 0.00 | 0.06 | 0.06 | 59 | 1010.1 |
| 20260903040345 | 85 | 176 | 1.0 | 3.0 | 0.00 | 0.06 | 0.06 | 59 | 1010.0 |
| 20260903035330 | 85 | 245 | 0.0 | 5.0 | 0.00 | 0.06 | 0.06 | 60 | 1009.9 |
| 20260903034334 | 84 | 176 | 1.0 | 3.0 | 0.00 | 0.06 | 0.06 | 60 | 1010.0 |
| 20260903033346 | 84 | 186 | 0.0 | 3.0 | 0.00 | 0.06 | 0.06 | 60 | 1010.0 |
| 20260903032353 | 85 | 142 | 0.0 | 3.0 | 0.00 | 0.06 | 0.06 | 60 | 1010.0 |
| 20260903031337 | 85 | 154 | 1.0 | 4.0 | 0.00 | 0.06 | 0.06 | 60 | 1010.0 |
| 20260903030325 | 85 | 174 | 0.0 | 2.0 | 0.00 | 0.06 | 0.06 | 60 | 1009.9 |
| 20260903025325 | 85 | 188 | 0.0 | 3.0 | 0.00 | 0.06 | 0.06 | 59 | 1010.0 |
| 20260903024343 | 85 | 116 | 0.0 | 4.0 | 0.00 | 0.06 | 0.06 | 59 | 1009.8 |
| 20260903023333 | 86 | 241 | 0.0 | 2.0 | 0.00 | 0.06 | 0.06 | 59 | 1009.8 |
| 20260903022331 | 86 | 216 | 0.0 | 2.0 | 0.00 | 0.06 | 0.06 | 58 | 1009.7 |
| 20260903021335 | 87 | 133 | 1.0 | 4.0 | 0.00 | 0.06 | 0.06 | 57 | 1009.6 |
| 20260903020324 | 87 | 159 | 0.0 | 1.0 | 0.00 | 0.06 | 0.06 | 57 | 1009.5 |
| 20260903015329 | 87 | 229 | 1.0 | 3.0 | 0.00 | 0.06 | 0.06 | 58 | 1009.3 |
| 20260903014340 | 88 | 143 | 0.0 | 1.0 | 0.00 | 0.06 | 0.06 | 58 | 1009.3 |
| 20260903013349 | 89 | 169 | 0.0 | 1.0 | 0.00 | 0.06 | 0.06 | 58 | 1009.3 |
| 20260903012331 | 89 | 181 | 0.0 | 2.0 | 0.00 | 0.06 | 0.06 | 57 | 1009.1 |
| 20260903011338 | 90 | 162 | 1.0 | 3.0 | 0.00 | 0.06 | 0.06 | 56 | 1009.1 |
| 20260903010330 | 90 | 165 | 0.0 | 2.0 | 0.00 | 0.06 | 0.06 | 55 | 1009.1 |
| 20260903005341 | 91 | 213 | 0.0 | 2.0 | 0.00 | 0.06 | 0.06 | 54 | 1009.1 |
| 20260903004330 | 92 | 105 | 0.0 | 3.0 | 0.00 | 0.06 | 0.06 | 53 | 1009.1 |
| 20260903003343 | 93 | 259 | 0.0 | 2.0 | 0.00 | 0.06 | 0.06 | 52 | 1009.2 |
| 20260903002331 | 94 | 187 | 0.0 | 3.0 | 0.00 | 0.06 | 0.06 | 51 | 1009.2 |
| 20260903001337 | 95 | 165 | 0.0 | 3.0 | 0.00 | 0.06 | 0.06 | 49 | 1009.2 |
| 20260903000328 | 96 | 157 | 0.0 | 4.0 | 0.00 | 0.06 | 0.06 | 48 | 1009.2 |
| 20260902235333 | 97 | 163 | 1.0 | 3.0 | 0.00 | 0.06 | 0.06 | 47 | 1009.2 |
| 20260902234338 | 98 | 157 | 1.0 | 3.0 | 0.00 | 0.06 | 0.06 | 47 | 1009.3 |
| 20260902233349 | 98 | 146 | 2.0 | 5.0 | 0.00 | 0.06 | 0.06 | 46 | 1009.4 |
| 20260902232332 | 98 | 148 | 1.0 | 5.0 | 0.00 | 0.06 | 0.06 | 46 | 1009.3 |
| 20260902231404 | 98 | 216 | 2.0 | 6.0 | 0.00 | 0.06 | 0.06 | 44 | 1009.2 |
| 20260902230352 | 98 | 158 | 3.0 | 6.0 | 0.00 | 0.06 | 0.06 | 44 | 1009.3 |
| 20260902225334 | 98 | 156 | 3.0 | 8.0 | 0.00 | 0.06 | 0.06 | 44 | 1009.3 |
| 20260902224343 | 98 | 164 | 3.0 | 7.0 | 0.00 | 0.06 | 0.06 | 44 | 1009.4 |
| 20260902223332 | 98 | 206 | 3.0 | 7.0 | 0.00 | 0.06 | 0.06 | 43 | 1009.4 |
| 20260902222325 | 98 | 185 | 3.0 | 8.0 | 0.00 | 0.06 | 0.06 | 45 | 1009.5 |
| 20260902221359 | 98 | 165 | 3.0 | 10.0 | 0.00 | 0.06 | 0.06 | 47 | 1009.5 |
| 20260902220404 | 98 | 164 | 2.0 | 9.0 | 0.00 | 0.06 | 0.06 | 47 | 1009.5 |
| 20260902215328 | 98 | 163 | 4.0 | 8.0 | 0.00 | 0.06 | 0.06 | 45 | 1009.5 |
| 20260902214333 | 98 | 159 | 2.0 | 12.0 | 0.00 | 0.06 | 0.06 | 45 | 1009.6 |
| 20260902213344 | 98 | 154 | 2.0 | 8.0 | 0.00 | 0.06 | 0.06 | 45 | 1009.6 |
| 20260902212351 | 99 | 168 | 3.0 | 10.0 | 0.00 | 0.06 | 0.06 | 44 | 1009.7 |
| 20260902211326 | 99 | 145 | 3.0 | 8.0 | 0.00 | 0.06 | 0.06 | 44 | 1009.7 |
| 20260902210335 | 98 | 211 | 2.0 | 7.0 | 0.00 | 0.06 | 0.06 | 45 | 1009.8 |
| 20260902205328 | 98 | 192 | 5.0 | 10.0 | 0.00 | 0.06 | 0.06 | 44 | 1009.9 |
| 20260902204331 | 98 | 126 | 3.0 | 12.0 | 0.00 | 0.06 | 0.06 | 44 | 1009.9 |
| 20260902203337 | 98 | 203 | 4.0 | 10.0 | 0.00 | 0.06 | 0.06 | 45 | 1010.0 |
| 20260902202341 | 97 | 203 | 1.0 | 6.0 | 0.00 | 0.06 | 0.06 | 47 | 1010.0 |
| 20260902201326 | 96 | 149 | 3.0 | 10.0 | 0.00 | 0.06 | 0.06 | 46 | 1010.2 |
| 20260902200334 | 97 | 160 | 4.0 | 7.0 | 0.00 | 0.06 | 0.06 | 47 | 1010.2 |
| 20260902195347 | 96 | 296 | 4.0 | 7.0 | 0.00 | 0.06 | 0.06 | 46 | 1010.3 |
| 20260902194400 | 96 | 240 | 5.0 | 7.0 | 0.00 | 0.06 | 0.06 | 45 | 1010.3 |
| 20260902193327 | 95 | 119 | 2.0 | 8.0 | 0.00 | 0.06 | 0.06 | 49 | 1010.5 |
| 20260902192354 | 94 | 165 | 2.0 | 6.0 | 0.00 | 0.06 | 0.06 | 49 | 1010.6 |
| 20260902191335 | 94 | 143 | 2.0 | 4.0 | 0.00 | 0.06 | 0.06 | 52 | 1010.5 |
| 20260902190345 | 94 | 149 | 2.0 | 4.0 | 0.00 | 0.06 | 0.06 | 49 | 1010.7 |
| 20260902185336 | 94 | 232 | 1.0 | 8.0 | 0.00 | 0.06 | 0.06 | 50 | 1010.8 |
| 20260902184341 | 92 | 289 | 2.0 | 7.0 | 0.00 | 0.06 | 0.06 | 50 | 1010.9 |
| 20260902183333 | 92 | 223 | 3.0 | 7.0 | 0.00 | 0.06 | 0.06 | 50 | 1011.0 |